Waikoloa, HI

2:45 AM HST on January 23, 2017 (GMT -1000)
Waikoloa Village | | Change Station
Active Advisory: Small Craft Advisory

Elev 1007 ft 19.95 °N, 155.78 °W | Updated 5 minutes ago

Partly Cloudy
Partly Cloudy
63.4 °F
Feels Like 63.4 °F
N
3.0
Wind Variable Wind from ESE
Gusts 7.0 mph

Today
High -- | Low -- °F
--% Chance of Precip.
Yesterday
High -- | Low -- °F
Precip. -- in
Pressure 30.10 in
Visibility 10.0 miles
Clouds Few 4100 ft
Dew Point 58 °F
Humidity 82%
Rainfall 0.00 in
Snow Depth Not available.
7:00 AM 6:09 PM
Waning Crescent, 19% visible
METAR PHKO 231153Z AUTO 14006KT 10SM FEW041 23/19 A3010 RMK AO2 SLP191 T02330189 10250 20233 58011 TSNO
Pressure 30.10 in
Visibility 10.0 miles
Clouds Few 4100 ft
Dew Point 58 °F
Humidity 82%
Rainfall 0.00 in
Snow Depth Not available.
7:00 AM 6:09 PM
Waning Crescent, 19% visible
METAR PHKO 231153Z AUTO 14006KT 10SM FEW041 23/19 A3010 RMK AO2 SLP191 T02330189 10250 20233 58011 TSNO

Get Your Daily Forecast Email!

Thanks for signing up!

Be on the lookout for a verification email in your inbox.

You'll start receiving the daily forecast at 8 AM.

×

10-Day Weather Forecast

Almanac

Astronomy

Jan. 23, 2017 Rise Set
Actual Time
Civil Twilight
Nautical Twilight
Astronomical Twilight
Moon
Length of Visible Light
Length of Day
Tomorrow will be .
, % of the Moon is Illuminated

Today's Extremes

State Highs State Lows

Community

WunderPhotos

Upload Photos

1,962,540 photos uploaded!

WunderBlog® & News

Nearby

Air Quality

  Air Quality AQ Index Pollutant
Not available.

Snow Depth

Station Depth Elevation

Earthquake Activity

City Distance Mag. Time & Date
Minimum magnitude displayed is 2.5.

Coastal Water Temperatures

Place Temperature

Stations

Nearby Weather Stations

Station Location Temp. Windchill Dew Point Humidity Wind Precip. Elev Updated Type
                   

Watches & Warnings

Small Craft Advisory
Issued: 9:31 PM HST Jan. 22, 2017 – National Weather Service

... Small Craft Advisory in effect until 6 PM HST Monday...
... Gale Warning is cancelled...

* winds... east 20 to 30 kt.

* Seas... 10 to 15 ft.

Precautionary/preparedness actions...

A Small Craft Advisory means that wind speeds of 25 to 33 knots
and/or seas 10 feet or greater are expected to produce conditions
hazardous to small craft. Inexperienced mariners... especially
those operating smaller vessels... should avoid navigating in
these conditions.